Fairbanks, AK

3:49 PM AKDT on September 25, 2017 (GMT -0800)
Fairbanks International

Weather History for PAFA - May, 2015

Change the Weather History Date:

Wednesday, May 13, 2015

  Actual Average Record
Temperature  
Mean Temperature 55 °F 48 °F  
Max Temperature 71 °F 60 °F 79 °F (2016)
Min Temperature 39 °F 37 °F 22 °F (2013)
Degree Days  
Heating Degree Days 10 17  
Month to date heating degree days 213 252  
Since 1 July heating degree days 12048 13276  
Cooling Degree Days 0 0  
Month to date cooling degree days 0 0  
Year to date cooling degree days 0 0  
Growing Degree Days 5 (Base 50)    
Moisture  
Dew Point 32 °F    
Average Humidity 42    
Maximum Humidity 86    
Minimum Humidity 12    
Precipitation  
Precipitation 0.00 in 0.02 in 0.56 in (1964)
Month to date precipitation 0.17 0.22  
Year to date precipitation 1.45 1.78  
Snow  
Snow 0.00 in 0.00 in 4.50 in (1964)
Month to date snowfall 0.0 0.6  
Since 1 July snowfall 43.8 64.7  
Snow Depth 0.00 in    
Sea Level Pressure  
Sea Level Pressure 29.81 in    
Wind  
Wind Speed 4 mph (SE)    
Max Wind Speed 10 mph    
Max Gust Speed 17 mph    
Visibility 10 miles    
Events      
T = Trace of Precipitation, MM = Missing Value Source: NWS Daily Summary

Daily Weather History Graph

Daily Weather History Graph

Search for Another Location

Airport or City:

Trip Planner

Search our weather history database for the weather conditions in past years. The results will help you decide how hot, cold, wet, or windy it might be!

Date:

Astronomy

May. 13, 2015 Rise Set
Actual Time 4:36 AM AKDT 11:02 PM AKDT
Civil Twilight 2:49 AM AKDT 12:55 AM AKDT
Nautical Twilight Sun does not set Sun does not set
Astronomical Twilight Sun does not set Sun does not set
Moon 4:09 AM AKDT (5/13) 4:09 PM AKDT (5/13)
Length of Visible Light 22h 06m
Length of Day
18h 26m
Waning Crescent, 24% of the Moon is Illuminated
May 13
Waning Crescent
May 17
New
May 25
First Quarter
Jun 2
Full
Jun 9
Last Quarter

Hourly Weather History & Observations

Time (AKDT) Temp. Windchill Dew Point Humidity Pressure Visibility Wind Dir Wind Speed Gust Speed Precip Events Conditions
12:53 AM 45.0 °F 43.5 °F 36.0 °F 71% 29.94 in 10.0 mi NNE 3.5 mph - N/A   Partly Cloudy
1:53 AM 44.1 °F - 36.0 °F 73% 29.94 in 10.0 mi Calm Calm - N/A   Partly Cloudy
2:53 AM 44.1 °F 42.5 °F 34.0 °F 68% 29.93 in 10.0 mi NE 3.5 mph - N/A   Partly Cloudy
3:53 AM 41.0 °F 38.0 °F 33.1 °F 73% 29.93 in 10.0 mi East 4.6 mph - N/A   Partly Cloudy
4:53 AM 39.9 °F - 36.0 °F 86% 29.92 in 10.0 mi Calm Calm - N/A   Partly Cloudy
5:53 AM 39.9 °F - 34.0 °F 79% 29.92 in 10.0 mi Calm Calm - N/A   Scattered Clouds
6:53 AM 43.0 °F - 37.0 °F 80% 29.92 in 10.0 mi Calm Calm - N/A   Scattered Clouds
7:53 AM 46.4 °F 43.5 °F 35.6 °F 66% 29.89 in 10.0 mi NNE 5.8 mph - N/A   Mostly Cloudy
8:53 AM 50.0 °F - 34.0 °F 54% 29.89 in 10.0 mi ENE 5.8 mph - N/A   Mostly Cloudy
9:53 AM 55.9 °F - 34.0 °F 44% 29.86 in 10.0 mi ENE 5.8 mph - N/A   Scattered Clouds
10:53 AM 60.1 °F - 33.1 °F 36% 29.83 in 10.0 mi Variable 3.5 mph - N/A   Scattered Clouds
11:53 AM 63.0 °F - 33.1 °F 33% 29.80 in 10.0 mi ENE 8.1 mph - N/A   Scattered Clouds
12:53 PM 66.0 °F - 33.1 °F 29% 29.79 in 10.0 mi ESE 9.2 mph - N/A   Scattered Clouds
1:53 PM 68.0 °F - 30.0 °F 24% 29.76 in 10.0 mi SSE 6.9 mph - N/A   Scattered Clouds
2:53 PM 68.0 °F - 28.9 °F 23% 29.74 in 10.0 mi Variable 3.5 mph - N/A   Scattered Clouds
3:53 PM 69.1 °F - 28.0 °F 22% 29.73 in 10.0 mi ESE 6.9 mph 17.3 mph N/A   Scattered Clouds
4:53 PM 70.0 °F - 28.0 °F 21% 29.70 in 10.0 mi SE 6.9 mph - N/A   Scattered Clouds
5:53 PM 71.1 °F - 28.0 °F 20% 29.69 in 10.0 mi SE 8.1 mph - N/A   Scattered Clouds
6:53 PM 70.0 °F - 26.1 °F 19% 29.68 in 10.0 mi SSW 8.1 mph - N/A   Scattered Clouds
7:53 PM 69.1 °F - 24.1 °F 18% 29.68 in 10.0 mi SSW 10.4 mph - N/A   Scattered Clouds
8:53 PM 66.0 °F - 28.0 °F 24% 29.71 in 10.0 mi SW 9.2 mph 17.3 mph N/A   Mostly Cloudy
9:53 PM 63.0 °F - 28.9 °F 28% 29.73 in 10.0 mi SW 5.8 mph - N/A   Mostly Cloudy
10:53 PM 60.1 °F - 28.9 °F 31% 29.73 in 10.0 mi SW 5.8 mph - N/A   Mostly Cloudy
11:53 PM 57.0 °F - 33.1 °F 40% 29.75 in 10.0 mi WSW 4.6 mph - N/A   Mostly Cloudy